Weather History for Somerset, KY

Change the Weather History Date:

Monday, April 22, 2013

  Actual Average Record
Temperature  
Mean Temperature 53 °F -  
Max Temperature 69 °F 69 °F 86 °F (2001)
Min Temperature 37 °F 45 °F 37 °F (2013)
Degree Days  
Heating Degree Days 12    
Growing Degree Days 3 (Base 50)    
Moisture  
Dew Point 37 °F    
Average Humidity 54    
Maximum Humidity 93    
Minimum Humidity 28    
Precipitation  
Precipitation 0.00 in - - ()
Sea Level Pressure  
Sea Level Pressure 30.25 in    
Wind  
Wind Speed 2 mph (NW)    
Max Wind Speed 7 mph    
Max Gust Speed -    
Visibility 10 miles    
Events      
Averages and records for this station are not official NWS values.
T = Trace of Precipitation, MM = Missing Value Source: NWS Daily Summary

Daily Weather History Graph

Daily Weather History Graph

Search for Another Location

Airport:

Trip Planner

Search our weather history database for the weather conditions in past years. The results will help you decide how hot, cold, wet, or windy it might be!

Date:

Astronomy

Apr. 22, 2013 Rise Set
Actual Time 6:54 AM EDT 8:19 PM EDT
Civil Twilight 6:27 AM EDT 8:47 PM EDT
Nautical Twilight 5:54 AM EDT 9:19 PM EDT
Astronomical Twilight 5:20 AM EDT 9:54 PM EDT
Moon 5:11 PM EDT (4/22) 4:44 AM EDT (4/22)
Length of Visible Light 14h 19m
Length of Day
13h 25m
Waxing Gibbous, 87% of the Moon is Illuminated
Apr 22
Waxing Gibbous
Apr 25
Full
May 2
Last Quarter
May 9
New
May 18
First Quarter

Hourly Weather History & Observations

Time (EDT) Temp. Windchill Dew Point Humidity Pressure Visibility Wind Dir Wind Speed Gust Speed Precip Events Conditions
12:15 AM 46.4 °F 45.2 °F 32.0 °F 57% 30.32 in 10.0 mi North 3.5 mph - N/A   Clear
12:35 AM 44.6 °F - 33.8 °F 66% 30.32 in 10.0 mi Calm Calm - N/A   Scattered Clouds
12:55 AM 44.6 °F - 33.8 °F 66% 30.32 in 10.0 mi Calm Calm - N/A   Mostly Cloudy
1:15 AM 46.4 °F - 33.8 °F 62% 30.31 in 10.0 mi Calm Calm - N/A   Overcast
1:35 AM 44.6 °F - 35.6 °F 71% 30.30 in 10.0 mi Calm Calm - N/A   Overcast
1:55 AM 46.4 °F - 35.6 °F 66% 30.30 in 10.0 mi Calm Calm - N/A   Overcast
2:15 AM 46.4 °F - 35.6 °F 66% 30.30 in 10.0 mi Calm Calm - N/A   Overcast
2:35 AM 46.4 °F - 33.8 °F 62% 30.30 in 10.0 mi Calm Calm - N/A   Overcast
2:55 AM 44.6 °F - 35.6 °F 71% 30.29 in 10.0 mi Calm Calm - N/A   Scattered Clouds
3:15 AM 42.8 °F - 35.6 °F 76% 30.29 in 10.0 mi Calm Calm - N/A   Clear
3:35 AM 42.8 °F - 35.6 °F 76% 30.29 in 10.0 mi Calm Calm - N/A   Clear
3:55 AM 42.8 °F - 35.6 °F 76% 30.29 in 10.0 mi Calm Calm - N/A   Clear
4:15 AM 42.8 °F - 35.6 °F 76% 30.29 in 10.0 mi Calm Calm - N/A   Clear
4:35 AM 42.8 °F - 35.6 °F 76% 30.29 in 10.0 mi Calm Calm - N/A   Clear
4:55 AM 41.0 °F - 35.6 °F 81% 30.29 in 10.0 mi Calm Calm - N/A   Clear
5:15 AM 41.0 °F - 33.8 °F 76% 30.29 in 10.0 mi Calm Calm - N/A   Clear
5:35 AM 39.2 °F - 35.6 °F 87% 30.30 in 10.0 mi Calm Calm - N/A   Clear
5:55 AM 39.2 °F - 35.6 °F 87% 30.30 in 10.0 mi Calm Calm - N/A   Clear
6:15 AM 39.2 °F - 33.8 °F 81% 30.30 in 10.0 mi Calm Calm - N/A   Clear
6:35 AM 37.4 °F - 33.8 °F 87% 30.31 in 10.0 mi Calm Calm - N/A   Clear
6:55 AM 37.4 °F - 35.6 °F 93% 30.32 in 10.0 mi Calm Calm - N/A   Clear
7:15 AM 37.4 °F - 35.6 °F 93% 30.32 in 10.0 mi Calm Calm - N/A   Clear
7:35 AM 39.2 °F - 37.4 °F 93% 30.33 in 10.0 mi Calm Calm - N/A   Clear
7:55 AM 41.0 °F - 37.4 °F 87% 30.33 in 10.0 mi Calm Calm - N/A   Clear
8:15 AM 42.8 °F - 37.4 °F 81% 30.33 in 10.0 mi Calm Calm - N/A   Clear
8:35 AM 44.6 °F - 39.2 °F 81% 30.33 in 10.0 mi Calm Calm - N/A   Clear
8:55 AM 46.4 °F - 37.4 °F 71% 30.34 in 10.0 mi Calm Calm - N/A   Clear
9:15 AM 50.0 °F - 37.4 °F 62% 30.33 in 10.0 mi Calm Calm - N/A   Clear
9:35 AM 53.6 °F - 39.2 °F 58% 30.33 in 10.0 mi Calm Calm - N/A   Clear
9:55 AM 55.4 °F - 37.4 °F 51% 30.33 in 10.0 mi South 4.6 mph - N/A   Clear
10:15 AM 55.4 °F - 37.4 °F 51% 30.33 in 10.0 mi South 5.8 mph - N/A   Clear
10:35 AM 57.2 °F - 37.4 °F 48% 30.33 in 10.0 mi South 4.6 mph - N/A   Clear
10:55 AM 59.0 °F - 37.4 °F 45% 30.33 in 10.0 mi SSW 4.6 mph - N/A   Clear
11:15 AM 60.8 °F - 37.4 °F 42% 30.33 in 10.0 mi SSW 6.9 mph - N/A   Clear
11:35 AM 60.8 °F - 37.4 °F 42% 30.33 in 10.0 mi SSW 5.8 mph - N/A   Clear
11:55 AM 62.6 °F - 37.4 °F 39% 30.32 in 10.0 mi WSW 4.6 mph - N/A   Clear
12:15 PM 62.6 °F - 37.4 °F 39% 30.31 in 10.0 mi WSW 5.8 mph - N/A   Clear
12:35 PM 64.4 °F - 37.4 °F 37% 30.30 in 10.0 mi WSW 4.6 mph - N/A   Clear
12:55 PM 64.4 °F - 37.4 °F 37% 30.29 in 10.0 mi West 3.5 mph - N/A   Clear
1:15 PM 64.4 °F - 37.4 °F 37% 30.28 in 10.0 mi NE 3.5 mph - N/A   Clear
1:35 PM 64.4 °F - 35.6 °F 34% 30.27 in 10.0 mi Calm Calm - N/A   Clear
1:55 PM 66.2 °F - 35.6 °F 32% 30.26 in 10.0 mi Calm Calm - N/A   Clear
2:15 PM 66.2 °F - 37.4 °F 35% 30.25 in 10.0 mi NW 4.6 mph - N/A   Clear
2:35 PM 68.0 °F - 35.6 °F 30% 30.24 in 10.0 mi West 5.8 mph - N/A   Clear
2:55 PM 68.0 °F - 35.6 °F 30% 30.22 in 10.0 mi West 3.5 mph - N/A   Clear
3:15 PM 68.0 °F - 37.4 °F 33% 30.21 in 10.0 mi NE 5.8 mph - N/A   Scattered Clouds
3:35 PM 68.0 °F - 35.6 °F 30% 30.21 in 10.0 mi WNW 4.6 mph - N/A   Scattered Clouds
3:55 PM 69.8 °F - 37.4 °F 31% 30.20 in 10.0 mi North 5.8 mph - N/A   Clear
4:15 PM 69.8 °F - 37.4 °F 31% 30.18 in 10.0 mi North 4.6 mph - N/A   Clear
4:35 PM 69.8 °F - 35.6 °F 28% 30.17 in 10.0 mi NNW 5.8 mph - N/A   Clear
4:55 PM 69.8 °F - 35.6 °F 28% 30.16 in 10.0 mi NW 5.8 mph - N/A   Clear
5:15 PM 69.8 °F - 35.6 °F 28% 30.16 in 10.0 mi NNW 5.8 mph - N/A   Clear
5:35 PM 69.8 °F - 37.4 °F 31% 30.15 in 10.0 mi NW 5.8 mph - N/A   Clear
5:55 PM 69.8 °F - 35.6 °F 28% 30.15 in 10.0 mi NW 3.5 mph - N/A   Clear
6:15 PM 69.8 °F - 35.6 °F 28% 30.15 in 10.0 mi WNW 5.8 mph - N/A   Clear
6:35 PM 68.0 °F - 35.6 °F 30% 30.15 in 10.0 mi NNE 5.8 mph - N/A   Clear
6:55 PM 68.0 °F - 35.6 °F 30% 30.15 in 10.0 mi North 4.6 mph - N/A   Clear
7:15 PM 68.0 °F - 35.6 °F 30% 30.15 in 10.0 mi NNE 3.5 mph - N/A   Clear
7:35 PM 66.2 °F - 35.6 °F 32% 30.15 in 10.0 mi NNE 6.9 mph - N/A   Clear
7:55 PM 64.4 °F - 35.6 °F 34% 30.14 in 10.0 mi NNE 5.8 mph - N/A   Clear
8:15 PM 64.4 °F - 35.6 °F 34% 30.14 in 10.0 mi NE 4.6 mph - N/A   Clear
8:35 PM 62.6 °F - 35.6 °F 37% 30.14 in 10.0 mi NE 4.6 mph - N/A   Clear
8:55 PM 60.8 °F - 37.4 °F 42% 30.14 in 10.0 mi Calm Calm - N/A   Clear
9:15 PM 60.8 °F - 37.4 °F 42% 30.15 in 10.0 mi Calm Calm - N/A   Clear
9:35 PM 59.0 °F - 37.4 °F 45% 30.15 in 10.0 mi Calm Calm - N/A   Clear
9:55 PM 55.4 °F - 39.2 °F 54% 30.15 in 10.0 mi Calm Calm - N/A   Clear
10:15 PM 55.4 °F - 39.2 °F 54% 30.16 in 10.0 mi Calm Calm - N/A   Clear
10:35 PM 53.6 °F - 41.0 °F 62% 30.17 in 10.0 mi Calm Calm - N/A   Clear
10:55 PM 53.6 °F - 41.0 °F 62% 30.17 in 10.0 mi Calm Calm - N/A   Clear
11:15 PM 53.6 °F - 41.0 °F 62% 30.17 in 10.0 mi Calm Calm - N/A   Clear
11:35 PM 51.8 °F - 41.0 °F 67% 30.16 in 10.0 mi Calm Calm - N/A   Clear
11:55 PM 50.0 °F - 42.8 °F 76% 30.17 in 10.0 mi Calm Calm - N/A   Clear